Weather History for Jackson, MN

Change the Weather History Date:

Wednesday, February 13, 2013

  Actual Average Record
Temperature  
Mean Temperature 31 °F -  
Max Temperature 39 °F 29 °F 60 °F (1997)
Min Temperature 23 °F 13 °F 0 °F (1997)
Degree Days  
Heating Degree Days 34    
Moisture  
Dew Point 27 °F    
Average Humidity 79    
Maximum Humidity 87    
Minimum Humidity 70    
Precipitation  
Precipitation 0.00 in - - ()
Sea Level Pressure  
Sea Level Pressure 29.69 in    
Wind  
Wind Speed 9 mph (WSW)    
Max Wind Speed 24 mph    
Max Gust Speed 30 mph    
Visibility 10 miles    
Events      
Averages and records for this station are not official NWS values.
T = Trace of Precipitation, MM = Missing Value Source: NWS Daily Summary

Daily Weather History Graph

Daily Weather History Graph

Search for Another Location

Airport:

Trip Planner

Search our weather history database for the weather conditions in past years. The results will help you decide how hot, cold, wet, or windy it might be!

Date:

Astronomy

Feb. 13, 2013 Rise Set
Actual Time 7:20 AM CST 5:47 PM CST
Civil Twilight 6:51 AM CST 6:17 PM CST
Nautical Twilight 6:17 AM CST 6:51 PM CST
Astronomical Twilight 5:44 AM CST 7:24 PM CST
Moon 8:42 AM CST (2/13) 10:01 PM CST (2/13)
Length of Visible Light 11h 26m
Length of Day
10h 26m
Waxing Crescent, 14% of the Moon is Illuminated
Feb 13
Waxing Crescent
Feb 17
First Quarter
Feb 25
Full
Mar 4
Last Quarter
Mar 11
New

Hourly Weather History & Observations

Time (CST) Temp. Windchill Dew Point Humidity Pressure Visibility Wind Dir Wind Speed Gust Speed Precip Events Conditions
12:13 AM 26.6 °F 17.5 °F 21.2 °F 80% 29.82 in 10.0 mi WNW 9.2 mph - N/A   Clear
12:32 AM 26.6 °F 16.8 °F 21.2 °F 80% 29.82 in 10.0 mi WNW 10.4 mph - N/A   Clear
12:53 AM 26.6 °F 18.2 °F 19.4 °F 74% 29.81 in 10.0 mi WNW 8.1 mph - N/A   Clear
1:13 AM 26.6 °F 19.1 °F 19.4 °F 74% 29.81 in 10.0 mi West 6.9 mph - N/A   Clear
1:32 AM 23.0 °F 15.8 °F 19.4 °F 86% 29.80 in 10.0 mi West 5.8 mph - N/A   Clear
1:53 AM 24.8 °F 16.1 °F 19.4 °F 80% 29.80 in 10.0 mi West 8.1 mph - N/A   Scattered Clouds
2:13 AM 24.8 °F 16.1 °F 21.2 °F 86% 29.79 in 10.0 mi West 8.1 mph - N/A   Mostly Cloudy
2:32 AM 26.6 °F 20.0 °F 21.2 °F 80% 29.79 in 10.0 mi West 5.8 mph - N/A   Mostly Cloudy
2:53 AM 24.8 °F 16.9 °F 19.4 °F 80% 29.79 in 10.0 mi West 6.9 mph - N/A   Scattered Clouds
3:12 AM 24.8 °F 16.9 °F 21.2 °F 86% 29.79 in 10.0 mi West 6.9 mph - N/A   Mostly Cloudy
3:32 AM 24.8 °F 16.9 °F 21.2 °F 86% 29.79 in 10.0 mi West 6.9 mph - N/A   Overcast
3:53 AM 26.6 °F 21.2 °F 21.2 °F 80% 29.78 in 10.0 mi West 4.6 mph - N/A   Overcast
4:13 AM 26.6 °F 19.1 °F 21.2 °F 80% 29.78 in 10.0 mi WNW 6.9 mph - N/A   Mostly Cloudy
4:32 AM 26.6 °F 22.6 °F 21.2 °F 80% 29.77 in 10.0 mi West 3.5 mph - N/A   Mostly Cloudy
4:53 AM 26.6 °F 19.1 °F 21.2 °F 80% 29.77 in 10.0 mi West 6.9 mph - N/A   Overcast
5:13 AM 26.6 °F 20.0 °F 21.2 °F 80% 29.76 in 10.0 mi West 5.8 mph - N/A   Scattered Clouds
5:32 AM 26.6 °F 19.1 °F 21.2 °F 80% 29.76 in 10.0 mi WSW 6.9 mph - N/A   Scattered Clouds
5:53 AM 26.6 °F 19.1 °F 23.0 °F 86% 29.76 in 10.0 mi West 6.9 mph - N/A   Overcast
6:13 AM 28.4 °F 19.1 °F 23.0 °F 80% 29.76 in 10.0 mi West 10.4 mph - N/A   Overcast
6:32 AM 28.4 °F 18.5 °F 23.0 °F 80% 29.76 in 10.0 mi West 11.5 mph - N/A   Mostly Cloudy
6:53 AM 28.4 °F 22.2 °F 23.0 °F 80% 29.76 in 10.0 mi WNW 5.8 mph - N/A   Overcast
7:12 AM 28.4 °F 21.2 °F 23.0 °F 80% 29.75 in 10.0 mi West 6.9 mph - N/A   Scattered Clouds
7:33 AM 28.4 °F 22.2 °F 23.0 °F 80% 29.75 in 10.0 mi WSW 5.8 mph - N/A   Scattered Clouds
7:53 AM 28.4 °F 22.2 °F 23.0 °F 80% 29.75 in 10.0 mi West 5.8 mph - N/A   Mostly Cloudy
8:12 AM 28.4 °F - 23.0 °F 80% 29.74 in 10.0 mi Calm Calm - N/A   Mostly Cloudy
8:33 AM 28.4 °F 23.3 °F 23.0 °F 80% 29.75 in 10.0 mi West 4.6 mph - N/A   Clear
8:53 AM 30.2 °F - 24.8 °F 80% 29.74 in 10.0 mi Calm Calm - N/A   Clear
9:12 AM 32.0 °F 24.8 °F 24.8 °F 75% 29.74 in 10.0 mi SW 8.1 mph - N/A   Clear
9:33 AM 32.0 °F 24.8 °F 26.6 °F 80% 29.73 in 10.0 mi SW 8.1 mph - N/A   Clear
9:52 AM 32.0 °F 23.0 °F 26.6 °F 80% 29.73 in 10.0 mi SSW 11.5 mph - N/A   Clear
10:12 AM 32.0 °F 23.0 °F 26.6 °F 80% 29.72 in 10.0 mi SW 11.5 mph - N/A   Clear
10:33 AM 33.8 °F 26.4 °F 28.4 °F 81% 29.72 in 10.0 mi SW 9.2 mph - N/A   Clear
10:52 AM 33.8 °F 27.0 °F 28.4 °F 81% 29.72 in 10.0 mi SSW 8.1 mph - N/A   Clear
11:12 AM 35.6 °F 28.6 °F 28.4 °F 75% 29.72 in 10.0 mi SW 9.2 mph - N/A   Clear
11:33 AM 35.6 °F 28.6 °F 28.4 °F 75% 29.71 in 10.0 mi SW 9.2 mph - N/A   Clear
11:52 AM 37.4 °F 29.8 °F 30.2 °F 75% 29.71 in 10.0 mi SW 11.5 mph - N/A   Clear
12:13 PM 37.4 °F 30.3 °F 30.2 °F 75% 29.70 in 10.0 mi SSW 10.4 mph - N/A   Clear
12:33 PM 39.2 °F 31.6 °F 30.2 °F 70% 29.70 in 10.0 mi SW 12.7 mph - N/A   Clear
12:52 PM 39.2 °F 30.8 °F 30.2 °F 70% 29.69 in 10.0 mi WSW 15.0 mph 18.4 mph N/A   Clear
1:13 PM 37.4 °F 29.8 °F 30.2 °F 75% 29.67 in 10.0 mi WSW 11.5 mph - N/A   Clear
1:32 PM 39.2 °F 32.0 °F 30.2 °F 70% 29.66 in 10.0 mi WSW 11.5 mph - N/A   Clear
1:53 PM 39.2 °F 33.0 °F 30.2 °F 70% 29.66 in 10.0 mi SW 9.2 mph - N/A   Mostly Cloudy
2:13 PM 39.2 °F 32.5 °F 30.2 °F 70% 29.65 in 10.0 mi SW 10.4 mph - N/A   Overcast
2:32 PM 39.2 °F 33.6 °F 32.0 °F 75% 29.64 in 10.0 mi SW 8.1 mph - N/A   Overcast
2:53 PM 39.2 °F 33.0 °F 32.0 °F 75% 29.64 in 10.0 mi WSW 9.2 mph - N/A   Overcast
3:12 PM 39.2 °F 33.0 °F 32.0 °F 75% 29.63 in 10.0 mi WSW 9.2 mph - N/A   Overcast
3:32 PM 39.2 °F 33.6 °F 32.0 °F 75% 29.63 in 10.0 mi SW 8.1 mph - N/A   Overcast
3:53 PM 39.2 °F 35.0 °F 32.0 °F 75% 29.62 in 10.0 mi SSW 5.8 mph - N/A   Overcast
4:12 PM 39.2 °F 33.6 °F 32.0 °F 75% 29.61 in 10.0 mi SSW 8.1 mph - N/A   Overcast
4:33 PM 39.2 °F 33.0 °F 32.0 °F 75% 29.61 in 10.0 mi SSW 9.2 mph - N/A   Overcast
4:53 PM 37.4 °F 30.8 °F 32.0 °F 81% 29.62 in 10.0 mi WSW 9.2 mph - N/A   Overcast
5:12 PM 39.2 °F 32.0 °F 32.0 °F 75% 29.62 in 10.0 mi WSW 11.5 mph - N/A   Overcast
5:33 PM 39.2 °F 32.0 °F 32.0 °F 75% 29.62 in 10.0 mi WSW 11.5 mph 17.3 mph N/A   Overcast
5:53 PM 37.4 °F 29.8 °F 32.0 °F 81% 29.61 in 10.0 mi WSW 11.5 mph - N/A   Light Drizzle
6:12 PM 39.2 °F 31.6 °F 32.0 °F 75% 29.60 in 10.0 mi WSW 12.7 mph - N/A   Overcast
6:33 PM 37.4 °F 29.8 °F 32.0 °F 81% 29.60 in 10.0 mi WSW 11.5 mph - N/A   Overcast
6:52 PM 37.4 °F 29.8 °F 32.0 °F 81% 29.60 in 10.0 mi WSW 11.5 mph - N/A   Overcast
7:13 PM 37.4 °F 30.3 °F 32.0 °F 81% 29.60 in 10.0 mi WSW 10.4 mph - N/A   Overcast
7:33 PM 37.4 °F 28.9 °F 32.0 °F 81% 29.60 in 10.0 mi West 13.8 mph - N/A   Overcast
7:52 PM 37.4 °F 29.3 °F 32.0 °F 81% 29.60 in 10.0 mi West 12.7 mph 17.3 mph N/A   Overcast
8:13 PM 37.4 °F 28.2 °F 32.0 °F 81% 29.60 in 10.0 mi West 16.1 mph 20.7 mph N/A   Overcast
8:32 PM 37.4 °F 28.2 °F 32.0 °F 81% 29.60 in 10.0 mi West 16.1 mph - N/A   Overcast
8:51 PM 35.6 °F 26.2 °F 32.0 °F 87% 29.61 in 10.0 mi West 15.0 mph - N/A   Mostly Cloudy
9:13 PM 35.6 °F 27.1 °F 32.0 °F 87% 29.61 in 10.0 mi West 12.7 mph - N/A   Mostly Cloudy
9:32 PM 35.6 °F 27.1 °F 32.0 °F 87% 29.61 in 10.0 mi West 12.7 mph 24.2 mph N/A   Overcast
9:52 PM 35.6 °F 27.1 °F 32.0 °F 87% 29.61 in 10.0 mi West 12.7 mph - N/A   Overcast
10:13 PM 35.6 °F 25.5 °F 32.0 °F 87% 29.61 in 10.0 mi West 17.3 mph - N/A   Overcast
10:32 PM 35.6 °F 25.5 °F 32.0 °F 87% 29.61 in 10.0 mi West 17.3 mph 24.2 mph N/A   Overcast
10:52 PM 35.6 °F 25.5 °F 32.0 °F 87% 29.61 in 10.0 mi West 17.3 mph 26.5 mph N/A   Overcast
11:13 PM 35.6 °F 24.5 °F 32.0 °F 87% 29.61 in 10.0 mi WNW 20.7 mph 25.3 mph N/A   Overcast
11:32 PM 35.6 °F 24.0 °F 30.2 °F 81% 29.62 in 10.0 mi NW 23.0 mph 28.8 mph N/A   Overcast
11:53 PM 33.8 °F 21.3 °F 30.2 °F 87% 29.63 in 10.0 mi WNW 24.2 mph 29.9 mph N/A   Overcast